Akron, OH

8:18 PM EDT on April 27, 2017 (GMT -0400)
Akron Fulton International

Weather History for KAKR - October, 2013

Change the Weather History Date:

Thursday, October 17, 2013

  Actual Average (KCAK) Record (KCAK)
Temperature  
Mean Temperature 48 °F -  
Max Temperature 57 °F 60 °F 82 °F (1938)
Min Temperature 42 °F 41 °F 29 °F (1982)
Degree Days  
Heating Degree Days 16    
Moisture  
Dew Point 46 °F    
Average Humidity 88    
Maximum Humidity 96    
Minimum Humidity 62    
Precipitation  
Precipitation 0.25 in - - ()
Sea Level Pressure  
Sea Level Pressure 29.86 in    
Wind  
Wind Speed 5 mph (WSW)    
Max Wind Speed 13 mph    
Max Gust Speed -    
Visibility 8 miles    
Events Rain    
Averages and records for this station are not official NWS values.
T = Trace of Precipitation, MM = Missing Value Source: NWS Daily Summary

Daily Weather History Graph

Daily Weather History Graph

Search for Another Location

Airport or City:

Trip Planner

Search our weather history database for the weather conditions in past years. The results will help you decide how hot, cold, wet, or windy it might be!

Date:

Astronomy

Oct. 17, 2013 Rise Set
Actual Time 7:39 AM EDT 6:41 PM EDT
Civil Twilight 7:12 AM EDT 7:09 PM EDT
Nautical Twilight 6:40 AM EDT 7:41 PM EDT
Astronomical Twilight 6:08 AM EDT 8:13 PM EDT
Moon 5:55 PM EDT (10/17) 6:10 AM EDT (10/17)
Length of Visible Light 11h 57m
Length of Day
11h 02m
Waxing Gibbous, 98% of the Moon is Illuminated
Oct 17
Waxing Gibbous
Oct 18
Full
Oct 26
Last Quarter
Nov 3
New
Nov 10
First Quarter

Hourly Weather History & Observations

Time (EDT) Temp. Windchill Dew Point Humidity Pressure Visibility Wind Dir Wind Speed Gust Speed Precip Events Conditions
12:54 AM 48.0 °F - 44.1 °F 86% 29.93 in 10.0 mi WSW 4.6 mph - N/A   Scattered Clouds
1:54 AM 46.9 °F - 44.1 °F 90% 29.93 in 10.0 mi Calm Calm - N/A   Scattered Clouds
2:54 AM 46.9 °F - 43.0 °F 86% 29.93 in 10.0 mi Calm Calm - N/A   Partly Cloudy
3:54 AM 45.0 °F - 43.0 °F 93% 29.92 in 10.0 mi Calm Calm - N/A   Clear
4:54 AM 44.1 °F 41.5 °F 42.1 °F 93% 29.91 in 10.0 mi SSW 4.6 mph - N/A   Clear
5:54 AM 44.1 °F 42.5 °F 42.1 °F 93% 29.92 in 10.0 mi SSW 3.5 mph - N/A   Clear
6:54 AM 42.1 °F - 41.0 °F 96% 29.91 in 7.0 mi Calm Calm - N/A   Clear
7:54 AM 42.1 °F - 41.0 °F 96% 29.91 in 5.0 mi Calm Calm - N/A   Clear
8:54 AM 46.0 °F - 44.1 °F 93% 29.92 in 6.0 mi Calm Calm - N/A   Clear
9:19 AM 46.4 °F 45.2 °F 44.6 °F 93% 29.91 in 2.5 mi WSW 3.5 mph - N/A   Clear
9:26 AM 48.2 °F - 44.6 °F 87% 29.91 in 4.0 mi Calm Calm - N/A   Clear
9:54 AM 50.0 °F - 46.0 °F 86% 29.90 in 8.0 mi Calm Calm - N/A   Clear
10:54 AM 54.0 °F - 46.0 °F 75% 29.90 in 10.0 mi SW 6.9 mph - N/A   Clear
11:54 AM 55.0 °F - 45.0 °F 69% 29.88 in 10.0 mi Variable 5.8 mph - N/A   Scattered Clouds
12:54 PM 55.9 °F - 43.0 °F 62% 29.84 in 10.0 mi West 3.5 mph - N/A   Overcast
1:54 PM 55.9 °F - 45.0 °F 67% 29.81 in 10.0 mi West 8.1 mph - N/A   Overcast
2:46 PM 51.8 °F - 48.2 °F 88% 29.82 in 1.8 mi WSW 6.9 mph - 0.06 in Rain Rain
2:54 PM 52.0 °F - 48.9 °F 89% 29.81 in 1.8 mi West 5.8 mph - 0.09 in Rain Rain
3:03 PM 51.8 °F - 48.2 °F 88% 29.82 in 2.0 mi West 8.1 mph - 0.03 in Rain Rain
3:12 PM 51.8 °F - 48.2 °F 88% 29.81 in 2.5 mi WNW 6.9 mph - 0.05 in Rain Rain
3:19 PM 51.8 °F - 48.2 °F 88% 29.78 in 2.5 mi ENE 4.6 mph - 0.07 in Rain Rain
3:32 PM 51.8 °F - 48.2 °F 88% 29.78 in 3.0 mi Calm Calm - 0.10 in Rain Rain
3:54 PM 51.1 °F - 46.9 °F 86% 29.80 in 6.0 mi Calm Calm - 0.12 in Rain Light Rain
4:42 PM 51.8 °F - 48.2 °F 88% 29.81 in 6.0 mi West 9.2 mph - 0.02 in Rain Light Rain
4:54 PM 51.1 °F - 48.0 °F 89% 29.80 in 10.0 mi WNW 4.6 mph - 0.02 in Rain Light Rain
5:25 PM 51.8 °F - 48.2 °F 88% 29.80 in 10.0 mi WSW 8.1 mph - 0.00 in   Mostly Cloudy
5:54 PM 51.1 °F - 48.0 °F 89% 29.82 in 10.0 mi West 8.1 mph - 0.00 in   Overcast
6:20 PM 51.8 °F - 48.2 °F 88% 29.81 in 8.0 mi West 8.1 mph - 0.00 in Rain Light Rain
6:42 PM 50.0 °F - 46.4 °F 87% 29.82 in 8.0 mi WNW 9.2 mph - 0.01 in Rain Light Rain
6:54 PM 50.0 °F - 46.9 °F 89% 29.83 in 5.0 mi WNW 9.2 mph - 0.01 in Rain Light Rain
7:16 PM 50.0 °F - 46.4 °F 87% 29.83 in 10.0 mi West 12.7 mph - 0.00 in   Overcast
7:54 PM 48.9 °F - 46.0 °F 90% 29.86 in 10.0 mi WSW 5.8 mph - 0.00 in   Overcast
8:54 PM 48.9 °F - 46.0 °F 90% 29.87 in 7.0 mi SW 10.4 mph - N/A   Overcast
9:03 PM 48.2 °F - 46.4 °F 93% 29.86 in 5.0 mi SW 9.2 mph - 0.00 in Rain Light Rain
9:15 PM 48.2 °F - 46.4 °F 93% 29.87 in 5.0 mi SW 10.4 mph - 0.01 in Rain Light Rain
9:33 PM 48.2 °F - 46.4 °F 93% 29.87 in 10.0 mi WSW 8.1 mph - 0.01 in   Overcast
9:51 PM 48.2 °F - 46.4 °F 93% 29.88 in 10.0 mi SW 8.1 mph - 0.01 in   Overcast
9:54 PM 48.9 °F - 46.0 °F 90% 29.88 in 10.0 mi SW 8.1 mph - 0.01 in   Overcast
10:36 PM 48.2 °F - 44.6 °F 87% 29.88 in 10.0 mi WSW 10.4 mph - N/A   Overcast
10:52 PM 48.2 °F - 44.6 °F 87% 29.89 in 10.0 mi WSW 8.1 mph - N/A   Overcast
10:54 PM 48.9 °F - 45.0 °F 86% 29.89 in 10.0 mi WSW 9.2 mph - N/A   Overcast
11:12 PM 48.2 °F - 44.6 °F 87% 29.89 in 6.0 mi SW 10.4 mph - 0.00 in Rain Light Rain
11:44 PM 48.2 °F - 44.6 °F 87% 29.89 in 10.0 mi WSW 10.4 mph - 0.00 in   Overcast
11:54 PM 48.0 °F - 45.0 °F 89% 29.89 in 10.0 mi WSW 9.2 mph - 0.00 in   Overcast